This demonstration page uses our WeatherBlox Daily Observations layout. Learn more.

Left ArrowRight Arrow

34.74481, -87.66753

Hourly Observations for July 30, 2022

Temp ( °F °C ) Dew Point ( °F °C ) Humidity (%) Winds ( mph kmh ) Pressure ( in mb ) Visibility ( mi km ) Precip ( " mm )
12:53 am 00:53 Partly Cloudy 78 25.6 75 23.9 90 90 Calm 30.07 1018 10 16 0.00 0.00
1:53 am 01:53 Partly Cloudy 77 25 74 23.3 90 90 Calm 30.07 1018 10 16 0.00 0.00
2:53 am 02:53 Mostly Cloudy 77 25 75 23.9 94 94 Calm 30.06 1018 10 16 0.00 0.00
3:53 am 03:53 Clear 77 25 75 23.9 94 94 Calm 30.08 1019 10 16 0.00 0.00
4:53 am 04:53 Cloudy 78 25.6 74 23.3 87 87 NE 3 6 30.09 1019 10 16 0.00 0.00
5:53 am 05:53 Mostly Cloudy 77 25 73 22.8 88 88 NE 6 9 30.10 1019 10 16 0.00 0.00
6:53 am 06:53 Mostly Cloudy 77 25 73 22.8 88 88 NE 5 7 30.11 1020 10 16 0.00 0.00
7:53 am 07:53 Partly Cloudy 79 26.1 72 22.2 79 79 ENE 3 6 30.13 1020 10 16 0.00 0.00
8:53 am 08:53 Mostly Sunny 80 26.7 73 22.8 79 79 Calm 30.12 1020 10 16 0.00 0.00
9:16 am 09:16 Mostly Cloudy 81 27.2 73 22.8 77 77 Calm 30.12 1020 10 16 0.00 0.00
9:53 am 09:53 Partly Cloudy 81 27.2 74 23.3 79 79 VRB 3 6 30.12 1020 10 16 0.00 0.00
10:53 am 10:53 Partly Cloudy 83 28.3 75 23.9 77 77 Calm 30.12 1020 10 16 0.00 0.00
11:08 am 11:08 Mostly Cloudy 84 28.9 75 23.9 74 74 VRB 5 7 30.12 1020 10 16 0.00 0.00
11:17 am 11:17 Mostly Sunny 83 28.3 75 23.9 77 77 S 3 6 30.12 1020 10 16 0.00 0.00
11:53 am 11:53 Sunny 85 29.4 74 23.3 70 70 Calm 30.12 1020 10 16 0.00 0.00
12:41 pm 12:41 Mostly Cloudy 89 31.7 75 23.9 63 63 SSE 5 7 30.11 1019 10 16 0.00 0.00
12:53 pm 12:53 Mostly Cloudy 89 31.7 74 23.3 61 61 VRB 5 7 30.11 1020 10 16 0.00 0.00
1:17 pm 13:17 Sunny with Nearby Thunderstorms 91 32.8 74 23.3 57 57 Calm 30.07 1018 10 16 0.00 0.00
1:53 pm 13:53 Mostly Cloudy with Thunderstorms 88 31.1 73 22.8 61 61 VRB 3 6 30.09 1019 10 16 0.00 0.00
2:38 pm 14:38 Mostly Cloudy with Light Rain 77 25 74 23.3 90 90 S 8 13 30.10 1019 9 14 0.05 1.27
2:45 pm 14:45 Partly Cloudy with Nearby Thunderstorms 77 25 74 23.3 90 90 S 7 11 30.09 1019 8 13 0.06 1.52
2:53 pm 14:53 Partly Cloudy with Nearby Thunderstorms 77 25 73 22.8 88 88 SSE 6 9 30.09 1019 8 13 0.06 1.52
3:00 pm 15:00 Partly Cloudy with Light Rain 77 25 73 22.8 88 88 ESE 6 9 30.09 1019 10 16 0.00 0.00
3:53 pm 15:53 Mostly Cloudy 78 25.6 74 23.3 87 87 NNW 3 6 30.08 1019 10 16 0.01 0.25
4:53 pm 16:53 Mostly Sunny 79 26.1 75 23.9 88 88 ENE 6 9 30.10 1019 10 16 0.00 0.00
5:53 pm 17:53 Sunny 78 25.6 74 23.3 87 87 E 7 11 30.09 1019 10 16 0.00 0.00
6:53 pm 18:53 Sunny 79 26.1 74 23.3 85 85 SSE 5 7 30.07 1018 10 16 0.00 0.00
7:53 pm 19:53 Sunny 79 26.1 75 23.9 88 88 SW 5 7 30.11 1020 10 16 0.00 0.00
8:53 pm 20:53 Mostly Clear 78 25.6 75 23.9 90 90 SSW 5 7 30.11 1020 10 16 0.00 0.00
9:53 pm 21:53 Clear 78 25.6 75 23.9 90 90 S 6 9 30.11 1020 10 16 0.00 0.00
10:53 pm 22:53 Mostly Clear 78 25.6 74 23.3 87 87 Calm 30.11 1020 10 16 0.00 0.00
11:23 pm 23:23 Mostly Cloudy 77 25 74 23.3 90 90 Calm 30.10 1019 10 16 0.00 0.00
11:53 pm 23:53 Mostly Clear 76 24.4 74 23.3 94 94 Calm 30.09 1019 10 16 0.00 0.00

Powered by AerisWeather